[[{"header":{"parameterUnit":"m.s-1","parameterCategory":1,"la1":30.2991,"la2":30.254,"lo1":-89.0895,"lo2":-89.0444,"dy":0.0017,"dx":0.0017,"nx":28,"ny":28,"refTime":"2023-07-23T09:00:00:Z","depth":0,"parameterNumber":2,"parameterNumberName":"U-component_of_WINDS"},"data":[0,0,0,0,0,0,0,0,0,0,0,0,0,0,0,0,0,0,0,0,0,0,0,0,0,0,0,0,0,0,0,0,0,0,0,0,0,0,0,0,0,0,0,0,0,0,0,0,0,0,0,0,0,0,0,0,0,0,1.8601,1.8602,0,1.8728,1.8729,1.8731,1.8716,1.8714,1.8712,1.871,1.884,1.8846,1.8851,0,0,0,0,0,0,0,0,0,0,0,0,0,1.8345,1.835,1.8601,1.8602,1.8604,1.8727,1.8729,1.8731,1.8716,1.8714,1.8711,1.8709,1.8839,1.8845,1.8851,0,0,0,0,0,0,0,0,0,0,0,0,0,1.8462,1.8351,1.86,1.8611,1.8614,1.8727,1.8729,1.8731,1.8717,1.8714,1.8711,1.8708,1.8836,1.8844,1.8852,1.8963,0,0,1.8877,1.888,0,0,0,0,0,0,0,0,1.8456,1.8472,1.8608,1.8611,1.8614,1.8703,1.8687,1.8809,1.8718,1.8678,1.871,1.8706,1.8797,1.8808,1.8839,1.8969,1.8974,1.8877,1.8882,1.8886,1.8888,0,0,0,0,0,0,0,1.8448,1.8466,1.8651,1.861,1.8614,1.861,1.8623,1.871,1.8753,1.8681,1.868,1.8695,1.8798,1.8831,1.8842,1.8976,1.8877,1.8884,1.8889,1.8892,1.9204,1.9207,0,0,0,0,0,0,1.8437,1.8459,1.8647,1.8655,1.8526,1.8617,1.8632,1.8677,1.8752,1.876,1.8698,1.8694,1.8819,1.8832,1.8846,1.8981,1.8886,1.8893,1.8898,1.92,1.9204,1.9208,0,0,0,0,0,0,1.8431,1.8454,1.8642,1.8557,1.8581,1.8625,1.8676,1.8681,1.8714,1.8765,1.8772,1.8724,1.8817,1.8835,1.8934,1.8985,1.8897,1.8904,1.9196,1.9201,1.9206,1.9252,0,0,0,0,0,0,1.8424,1.8452,1.8495,1.8558,1.8585,1.8728,1.8679,1.8686,1.8728,1.8725,1.8791,1.8799,1.8816,1.8922,1.8942,1.8995,1.891,1.9192,1.9198,1.9205,1.9246,1.9258,1.9268,0,0,0,0,0,1.8415,1.8502,1.8497,1.8519,1.864,1.8731,1.8746,1.8764,1.8733,1.8776,1.8808,1.8797,1.8976,1.8932,1.8954,1.9011,1.9189,1.9197,1.9204,1.9241,1.9255,1.9268,0,0,0,0,0,0,1.8444,1.8511,1.8506,1.8616,1.8668,1.8728,1.8784,1.8779,1.884,1.8835,1.8853,1.8868,1.8969,1.8999,1.8949,1.9121,1.9078,1.9091,1.9098,1.9113,1.9123,1.9115,1.8917,0,0,0,0,0,1.8463,1.8532,1.8586,1.8679,1.8705,1.874,1.878,1.8789,1.8843,1.8865,1.8904,1.8958,1.9026,1.9071,1.9136,1.9249,1.9264,1.9299,1.931,1.9319,1.933,1.9392,1.9409,1.9233,1.9233,1.9233,0,0,1.8504,1.8549,1.8591,1.8686,1.8727,1.8797,1.8758,1.8835,1.8887,1.8877,1.8973,1.9003,1.9064,1.9171,1.922,1.9199,1.9381,1.9328,1.9335,1.9342,1.9402,1.9419,1.9433,1.9239,1.9238,1.9237,0,0,1.8615,1.8655,1.8737,1.8778,1.8841,1.8863,1.8883,1.8944,1.8964,1.906,1.9054,1.9116,1.9233,1.9277,1.9314,1.9439,1.9432,1.946,1.9519,1.9579,1.9593,1.9606,1.9651,1.9667,1.9471,1.9471,1.9471,0,1.8658,1.8764,1.8779,1.8857,1.8898,1.8891,1.8974,1.9013,1.9094,1.9123,1.9099,1.9245,1.9286,1.9403,1.9433,1.9463,1.9486,1.9454,1.959,1.9602,1.9614,1.9658,1.9675,1.9474,1.9473,1.9473,1.9473,0,1.8814,1.8888,1.8946,1.9024,1.9072,1.9151,1.9178,1.9225,1.9229,1.9254,1.9352,1.9399,1.9475,1.9503,1.9507,1.962,1.9606,1.9586,1.9543,1.9634,1.9675,1.9692,1.9478,1.9477,1.9476,1.9475,0,0,1.895,1.9034,1.9055,1.909,1.9158,1.9215,1.9293,1.9366,1.9406,1.9461,1.9529,1.9627,1.9608,1.9651,1.966,1.9713,1.981,1.9686,1.9688,1.9709,1.9938,1.9955,1.9974,1.9804,1.9808,1.981,1.9934,0,1.9068,1.9208,1.9223,1.9348,1.9416,1.9409,1.9477,1.9526,1.9551,1.9612,1.9639,1.9709,1.9678,1.9704,1.9756,1.9787,1.9857,1.9778,1.9868,1.9871,1.9855,1.9996,2.0013,2.0128,1.995,1.9953,1.9955,0,1.9226,1.9286,1.9417,1.9474,1.9504,1.9565,1.9633,1.9691,1.9746,1.976,1.9807,1.9809,1.989,1.9842,1.9954,1.99,1.9937,1.9958,1.9963,1.9974,1.992,2.0012,2.0164,2.0182,1.998,1.9978,1.9976,0,1.9314,1.9426,1.952,1.9549,1.9618,1.9662,1.9692,1.9744,1.9786,1.9845,1.9873,1.9941,1.9979,2.0031,2.0051,2.0014,2.0162,2.0116,2.0177,2.0177,2.0211,2.0209,2.0374,2.0232,2.0231,2.0231,2.0231,0,1.9446,1.9527,1.956,1.9617,1.9708,1.9723,1.9812,1.9841,1.9886,1.9949,1.9946,2.0005,2.0027,2.009,2.0106,2.0197,2.0214,2.0228,2.0232,2.0229,2.0228,2.0256,2.0249,2.0236,2.0235,2.0234,2.0233,0,1.9561,1.9586,1.9687,1.9743,1.9759,1.9823,1.9871,1.9926,1.9949,2.0029,2.0048,2.0084,2.0158,2.0182,2.0271,2.0282,2.0388,2.0384,2.037,2.0371,2.0432,2.0426,2.0622,2.0649,2.0487,2.0489,2.049,0,1.9645,1.9707,1.9769,1.9811,1.9843,1.991,1.9953,1.997,2.0015,2.0081,2.0129,2.0201,2.0261,2.0379,2.0413,2.0481,2.048,2.0543,2.049,2.0486,2.0483,2.048,2.0486,2.0554,2.0556,2.0557,2.0558,0,1.9792,1.9801,1.9863,1.993,1.9981,2.0034,2.0086,2.012,2.0144,2.0195,2.027,2.0315,2.0406,2.0478,2.0547,2.0579,2.0574,2.0574,2.0592,2.0592,2.0582,2.059,2.0399,2.057,2.0569,2.0568,2.0568,2.0567,1.9896,1.995,2.0002,2.0071,2.0111,2.0159,2.0214,2.0243,2.0305,2.038,2.0385,2.0466,2.0518,2.061,2.0645,2.0709,2.0691,2.0717,2.0724,2.073,2.0736,2.057,2.0721,2.0721,2.072,2.072,2.072,0,2.0044,2.0076,2.014,2.0211,2.0265,2.0253,2.0309,2.0355,2.0426,2.0475,2.0533,2.0618,2.0688,2.0727,2.0797,2.084,2.084,2.0858,2.0856,2.0864,2.0747,2.0725,2.0858,2.0858,2.0858,2.0858,2.0858,2.0858,2.0128,2.022,2.0234,2.0346,2.0378,2.0456,2.0489,2.0533,2.0572,2.0668,2.0725,2.0749,2.0794,2.0867,2.093,2.094,2.0967,2.0988,2.0996,2.0886,2.0872,2.0859,2.0838,2.0993,2.0993,2.1108,2.1109,2.1109]},{"header":{"parameterUnit":"m.s-1","parameterCategory":1,"la1":30.2991,"la2":30.254,"lo1":-89.0895,"lo2":-89.0444,"dy":0.0017,"dx":0.0017,"nx":28,"ny":28,"refTime":"2023-07-23T09:00:00:Z","depth":0,"parameterNumber":3,"parameterNumberName":"V-component_of_WINDS"},"data":[0,0,0,0,0,0,0,0,0,0,0,0,0,0,0,0,0,0,0,0,0,0,0,0,0,0,0,0,0,0,0,0,0,0,0,0,0,0,0,0,0,0,0,0,0,0,0,0,0,0,0,0,0,0,0,0,0,0,-1.1994,-1.1994,0,-1.2018,-1.2019,-1.2019,-1.2069,-1.207,-1.2071,-1.2072,-1.2095,-1.2094,-1.2094,0,0,0,0,0,0,0,0,0,0,0,0,0,-1.199,-1.199,-1.1994,-1.1994,-1.1995,-1.2018,-1.2019,-1.2019,-1.2069,-1.207,-1.2071,-1.2072,-1.2095,-1.2094,-1.2094,0,0,0,0,0,0,0,0,0,0,0,0,0,-1.2001,-1.199,-1.1994,-1.2022,-1.2025,-1.2018,-1.2019,-1.2019,-1.2068,-1.207,-1.2071,-1.2073,-1.2095,-1.2094,-1.2094,-1.2061,0,0,-1.2092,-1.2092,0,0,0,0,0,0,0,0,-1.2,-1.2001,-1.2018,-1.202,-1.2023,-1.2042,-1.2026,-1.2033,-1.2068,-1.2052,-1.2072,-1.2074,-1.2076,-1.2077,-1.2078,-1.2062,-1.2063,-1.2092,-1.2092,-1.2092,-1.2092,0,0,0,0,0,0,0,-1.1999,-1.2,-1.2004,-1.2018,-1.2021,-1.2034,-1.2037,-1.2027,-1.2055,-1.2053,-1.2057,-1.2059,-1.2078,-1.2078,-1.2079,-1.2063,-1.2092,-1.2092,-1.2092,-1.2091,-1.2022,-1.2021,0,0,0,0,0,0,-1.1995,-1.1999,-1.2003,-1.2004,-1.2015,-1.2033,-1.2036,-1.2035,-1.2055,-1.206,-1.2058,-1.2062,-1.2079,-1.208,-1.208,-1.2043,-1.2092,-1.2091,-1.2091,-1.2024,-1.2022,-1.202,0,0,0,0,0,0,-1.1994,-1.1995,-1.2002,-1.2003,-1.2005,-1.2031,-1.2029,-1.2034,-1.2035,-1.2059,-1.2064,-1.2054,-1.208,-1.2081,-1.2066,-1.2044,-1.2091,-1.2091,-1.2026,-1.2023,-1.2021,-1.1967,0,0,0,0,0,0,-1.1994,-1.1994,-1.1981,-1.2002,-1.2004,-1.1986,-1.2028,-1.2034,-1.2034,-1.2039,-1.2056,-1.206,-1.2081,-1.2066,-1.2065,-1.2044,-1.209,-1.2028,-1.2025,-1.2022,-1.1971,-1.1963,-1.1957,0,0,0,0,0,-1.1994,-1.1964,-1.1981,-1.1981,-1.1989,-1.1985,-1.1986,-1.2011,-1.2033,-1.202,-1.2036,-1.206,-1.2047,-1.2064,-1.2063,-1.2042,-1.2029,-1.2026,-1.2022,-1.1974,-1.1965,-1.1957,0,0,0,0,0,0,-1.1939,-1.1968,-1.1986,-1.1962,-1.1971,-1.1994,-1.1978,-1.2001,-1.2003,-1.2007,-1.2038,-1.2041,-1.2022,-1.2031,-1.2049,-1.2012,-1.2042,-1.2038,-1.2006,-1.1997,-1.1991,-1.1987,-1.209,0,0,0,0,0,-1.1924,-1.1919,-1.1944,-1.1921,-1.1925,-1.1951,-1.195,-1.1969,-1.1979,-1.1983,-1.1997,-1.2006,-1.2004,-1.2002,-1.2001,-1.1974,-1.1978,-1.1959,-1.1952,-1.1946,-1.1942,-1.1929,-1.1921,-1.2009,-1.2009,-1.2009,0,0,-1.1893,-1.1909,-1.1903,-1.1911,-1.192,-1.1913,-1.1954,-1.1945,-1.194,-1.1981,-1.1967,-1.1979,-1.1991,-1.197,-1.1961,-1.1976,-1.1919,-1.1942,-1.1937,-1.1936,-1.1925,-1.1916,-1.1909,-1.2007,-1.2007,-1.2008,0,0,-1.1833,-1.1845,-1.1827,-1.1836,-1.185,-1.1868,-1.1864,-1.1884,-1.1893,-1.1881,-1.1912,-1.1908,-1.1904,-1.1911,-1.1914,-1.1861,-1.1883,-1.1861,-1.1822,-1.1809,-1.1802,-1.1796,-1.1777,-1.1769,-1.1857,-1.1856,-1.1856,0,-1.1792,-1.1784,-1.1815,-1.1804,-1.1807,-1.1846,-1.1829,-1.1836,-1.1848,-1.1849,-1.1868,-1.1865,-1.1876,-1.1857,-1.1844,-1.1846,-1.1842,-1.1857,-1.1801,-1.1795,-1.179,-1.1772,-1.1764,-1.1853,-1.1854,-1.1854,-1.1854,0,-1.1733,-1.1728,-1.1712,-1.1724,-1.1726,-1.1712,-1.174,-1.1738,-1.1758,-1.1775,-1.1762,-1.1777,-1.1781,-1.1779,-1.1797,-1.1763,-1.1773,-1.1796,-1.1826,-1.1778,-1.1761,-1.1755,-1.1849,-1.185,-1.1851,-1.1852,0,0,-1.1634,-1.1667,-1.1661,-1.1668,-1.1688,-1.1684,-1.1673,-1.1678,-1.1675,-1.1684,-1.1675,-1.1673,-1.1695,-1.1699,-1.1719,-1.1708,-1.1665,-1.1733,-1.1734,-1.1718,-1.1628,-1.1609,-1.16,-1.1682,-1.1681,-1.168,-1.1627,0,-1.1577,-1.156,-1.1588,-1.1564,-1.1559,-1.1599,-1.1589,-1.1601,-1.1617,-1.1615,-1.1634,-1.1631,-1.1661,-1.1663,-1.1655,-1.1672,-1.1647,-1.1677,-1.1673,-1.1672,-1.1666,-1.1592,-1.1571,-1.152,-1.1621,-1.162,-1.1619,0,-1.1507,-1.1514,-1.1489,-1.1513,-1.1512,-1.1503,-1.1511,-1.1509,-1.1524,-1.1537,-1.1543,-1.1568,-1.1559,-1.1592,-1.158,-1.16,-1.1601,-1.1609,-1.1608,-1.1606,-1.164,-1.1586,-1.1505,-1.1496,-1.1609,-1.161,-1.1611,0,-1.1436,-1.1439,-1.1425,-1.143,-1.1458,-1.145,-1.1462,-1.1478,-1.148,-1.1488,-1.1489,-1.1495,-1.1498,-1.1503,-1.1529,-1.1551,-1.1515,-1.1549,-1.1524,-1.1523,-1.1512,-1.1512,-1.1427,-1.1516,-1.1517,-1.1517,-1.1517,0,-1.1367,-1.135,-1.1394,-1.1384,-1.1367,-1.1402,-1.1384,-1.1399,-1.1414,-1.1409,-1.1445,-1.1439,-1.1476,-1.1475,-1.1497,-1.1484,-1.1485,-1.1495,-1.15,-1.149,-1.1488,-1.1489,-1.1492,-1.1515,-1.1515,-1.1516,-1.1516,0,-1.1282,-1.1311,-1.1298,-1.1327,-1.1334,-1.132,-1.1345,-1.1338,-1.1358,-1.1352,-1.1352,-1.1383,-1.1384,-1.1413,-1.1419,-1.1434,-1.1411,-1.1424,-1.1406,-1.1409,-1.1382,-1.1384,-1.1293,-1.1282,-1.138,-1.1379,-1.1378,0,-1.1235,-1.1223,-1.1252,-1.1251,-1.1261,-1.126,-1.1263,-1.1298,-1.13,-1.1318,-1.1308,-1.1313,-1.1317,-1.1317,-1.134,-1.1346,-1.1358,-1.1326,-1.1359,-1.135,-1.1356,-1.1355,-1.1354,-1.1318,-1.1317,-1.1316,-1.1315,0,-1.1148,-1.1164,-1.1166,-1.1175,-1.1178,-1.1186,-1.1197,-1.1195,-1.1233,-1.1233,-1.1235,-1.1239,-1.1248,-1.1251,-1.1262,-1.1274,-1.13,-1.1305,-1.13,-1.1287,-1.1277,-1.1281,-1.1384,-1.1306,-1.1307,-1.1308,-1.1308,-1.1308,-1.1079,-1.1071,-1.109,-1.1093,-1.1105,-1.1115,-1.111,-1.1132,-1.1134,-1.1143,-1.1165,-1.1163,-1.1181,-1.1199,-1.1209,-1.1209,-1.1225,-1.1217,-1.1214,-1.1211,-1.1205,-1.128,-1.1211,-1.1211,-1.1212,-1.1212,-1.1212,0,-1.0992,-1.1008,-1.101,-1.1025,-1.1027,-1.1055,-1.1069,-1.1069,-1.1068,-1.1083,-1.1088,-1.1091,-1.1096,-1.1121,-1.1129,-1.1124,-1.1136,-1.1124,-1.1123,-1.1126,-1.1191,-1.1194,-1.1114,-1.1114,-1.1114,-1.1114,-1.1114,-1.1114,-1.0947,-1.0934,-1.0953,-1.0948,-1.0964,-1.0963,-1.0969,-1.0979,-1.0991,-1.0993,-1.0997,-1.1015,-1.1034,-1.1044,-1.105,-1.1058,-1.1058,-1.1041,-1.1052,-1.1112,-1.1121,-1.113,-1.1133,-1.1042,-1.1041,-1.0987,-1.0987,-1.0986]}]]